Regional Weather Roundup
Issued by NWS

Current Version | Previous Version | Text Only | Print | Product List | Glossary On
Versions: 1 2 3 4 5 6 7 8 9 10 11 12 13 14 15 16 17 18 19 20 21 22 23 24 25 26 27 28 29 30 31 32 33 34 35 36 37 38 39 40 41 42 43 44 45 46 47 48 49 50
195
ASCA44 KEWX 082120
RWRMX

LATIN AMERICA AND CARIBBEAN REGIONAL WEATHER ROUNDUP
NATIONAL WEATHER SERVICE AUSTIN/SAN ANTONIO TX
300 PM CST MON FEB 08 2016

NOTE: "FAIR" INDICATED FEW OR NO CLOUDS BELOW 12,000 FEET WITH NO
SIGNIFICANT WEATHER AND/OR OBSTRUCTIONS TO VISIBILITY.

BAJA CALIFORNIA

CITY           SKY/WX    TMP DP  RH WIND       PRES   REMARKS
LORETO         PTSUNNY   81  55  41 NW14      29.94F
LA PAZ         CLOUDY    75  39  27 NE13      29.98F
MEXICALI       SUNNY     79  21  11 W6        30.17F
S.J. DEL CABO  CLOUDY    82  28  14 NW6       29.96R
TIJUANA        SUNNY     84  18   8 E18       30.11F

NORTHWESTERN MEXICO

CITY           SKY/WX    TMP DP  RH WIND       PRES   REMARKS
CULIACAN       CLOUDY    70  59  68 W5        29.92F
DURANGO        CLOUDY    66   7   9 NW5       30.28F
GUAYMAS        CLOUDY    82  43  24 CALM      29.91F
HERMOSILLO     CLOUDY    88  23   9 S5        30.00F
CD. JUAREZ     PTSUNNY   57  37  47 N9        30.36F
LOS MOCHIS     CLOUDY    73  54  49 N8        29.96R
OBREGON        CLOUDY    75  52  43 S10       29.93F

NORTHEASTERN MEXICO

CITY           SKY/WX    TMP DP  RH WIND       PRES   REMARKS
CHIHUAHUA      PTSUNNY   61  14  16 CALM      30.33F
MATAMOROS      CLOUDY    66  52  59 NW21      30.33S
MONCLOVA       PTSUNNY   61  23  23 CALM      30.36
MONTERREY      CLOUDY    64  23  20 N14G29    30.34F
NUEVO LAREDO   PTSUNNY   68  30  24 N8        30.37F
PIEDRAS NEGRAS MOSUNNY   68  39  34 NW9       30.41
REYNOSA        CLOUDY    64  30  27 N12G23    30.32F
SALTILLO       CLOUDY    55  34  44 N17       30.39F
TORREON        CLOUDY    72  21  15 N9        30.24F
CD. VICTORIA   CLOUDY    75  32  20 N18       30.26F

WESTERN MEXICO

CITY           SKY/WX    TMP DP  RH WIND       PRES   REMARKS
AGUASCALIENTES CLOUDY    70  16  12 E12       30.27F
COLIMA         PTSUNNY   86  48  26 SW12      29.92F
DEL BAJIO      PTSUNNY   75  10   8 N8        30.27F
GUADALAJARA    CLOUDY    77  14   9 W3        30.15F
MANZANILLO     PTSUNNY   82  70  65 S12       29.80F
MAZATLAN       CLOUDY    81  59  47 SW3       29.90F
P. VALLARTA    CLOUDY    79  64  61 W2        29.87F
URUAPAN        PTSUNNY   77  52  41 S12       30.10F
ZACATECAS      CLOUDY    64  28  25 N12       30.30F

CENTRAL MEXICO

CITY           SKY/WX    TMP DP  RH WIND       PRES   REMARKS
CUERNAVACA     MOSUNNY   82  21  10 E6        30.05F
MEXICO CITY    MOSUNNY   70   3   7 NW8       30.28F
MORELIA        PTSUNNY   77   7   6 NE3       30.16F
POZA RICA      MOSUNNY   79  59  50 E7        30.23F
PUEBLA         PTSUNNY   75   1   5 E10       30.26F
QUERETARO      PTSUNNY   70   1   7 SE17G29   30.30F
S. LUIS POTOSI CLOUDY    63  10  13 SE14      30.28F
TAMPICO        PTSUNNY   73  50  43 NE13      30.23F
TOLUCA         PTSUNNY   72  21  15 E17       30.32F

SOUTHERN MEXICO

CITY           SKY/WX    TMP DP  RH WIND       PRES   REMARKS
ACAPULCO       MOSUNNY   84  73  70 SW8       29.82F HX  91
B. DE HUATULCO   N/A    N/A N/A N/A MISG        N/A
OAXACA         SUNNY     77  21  12 E3        30.16F
P. ESCONDIDO   SUNNY     81  72  74 SE12      29.97
VERACRUZ       MOSUNNY   75  57  53 NE13      30.19F
ZIHUATANEJO    MOSUNNY   86  77  74 SW6       29.84F HX  97

YUCATAN PENINSULA

CITY           SKY/WX    TMP DP  RH WIND       PRES   REMARKS
CAMPECHE       PTSUNNY   70  55  60 N12G23    30.11F
CANCUN         PTSUNNY   73  59  60 N8        30.10F
CHETUMAL       MOSUNNY   77  57  50 CALM      30.10F
CD. DEL CARMEN PTSUNNY   72  55  56 N9        30.15F
COZUMEL        PTSUNNY   72  59  64 NW8       30.10F
MERIDA         PTSUNNY   75  50  41 N8        30.13F
MINATITLAN     MOSUNNY   72  64  78 N12       30.11F
TAPACHULA      MOSUNNY   86  73  66 W12       29.88F HX  93
TUX. GUTIERREZ SUNNY     73  50  43 NW23      30.03F
VILLAHERMOSA   PTSUNNY   75  59  57 N5        30.16F

CENTRAL AMERICA

CITY           SKY/WX    TMP DP  RH WIND       PRES   REMARKS
BELIZE CITY    MOSUNNY   77  59  53 W6        30.08F
MANAGUA        PTCLDY    88  68  51 NE18      29.83S HX  91

CARIBBEAN

CITY           SKY/WX    TMP DP  RH WIND       PRES   REMARKS
ARUBA          MOSUNNY   84  73  70 E21       29.83S HAZE    HX  91
CURACAO        MOSUNNY   82  73  74 SE18      29.86S
KINGSTON       MOSUNNY   86  72  62 SE18      29.92R HX  92
NASSAU         MOSUNNY   68  54  60 W7        30.04R
SAN JUAN       MOSUNNY   84  66  54 S12       29.96S
SANTO DOMINGO  MOSUNNY   84  72  65 S6        29.94S
ST. CROIX      MOSUNNY   82  72  69 SE9       30.00
ST. KITTS      MOSUNNY   81  73  78 E12       29.97F
ST. MAARTEN    MOSUNNY   81  73  78 SE12      29.97S
ST. THOMAS     SUNNY     81  72  74 E9        29.98

$$





USA.gov is the U.S. government's official web portal to all federal, state and local government web resources and services.